GFSSW_sfc_thetae_105.txt.gz
Theta_e
335 335 334 334 333 333 333 332 332 331 330 329 329 328 328 327 325 312 306 315 323 337 329 314 316 315 312 309 307 304 300 296 297 296 301 301 300 302 302 302 303 305 305 308 315
334 334 334 333 333 333 333 332 331 331 330 329 329 329 328 326 314 307 317 330 337 343 315 311 310 311 305 308 306 302 299 298 299 298 298 300 301 301 301 300 301 303 309 311 314
334 334 333 333 333 333 332 332 331 330 329 329 329 328 326 323 305 305 336 335 341 339 314 313 311 309 306 306 304 300 299 300 301 301 301 301 300 301 300 298 301 302 306 310 312
330 333 333 333 332 332 332 331 330 329 329 328 328 327 326 313 294 308 341 346 342 320 312 309 306 303 301 301 303 301 301 300 303 303 300 300 302 300 299 302 302 302 308 309 311
327 331 332 332 332 332 331 331 330 329 328 328 327 326 312 303 303 311 335 343 326 311 309 306 303 301 298 299 300 299 300 299 300 299 300 300 299 299 298 301 301 301 306 308 309
323 325 331 332 332 331 331 330 329 329 328 327 326 324 307 296 307 320 320 317 314 310 308 308 304 303 300 300 299 300 299 298 299 299 299 298 298 298 300 299 300 300 301 302 302
319 323 325 330 330 330 330 329 329 328 327 325 324 319 307 301 310 311 312 312 311 310 307 310 306 304 302 299 302 298 297 297 298 298 297 298 295 295 299 298 299 300 301 301 302
318 319 321 325 329 329 328 329 328 326 326 324 322 313 300 310 312 311 311 311 313 311 310 309 307 304 303 301 298 295 294 292 296 296 296 297 292 296 298 297 298 298 299 300 302
316 317 319 320 327 327 326 327 326 326 324 322 310 304 296 312 307 310 310 307 311 309 308 308 306 301 301 296 294 292 290 289 292 296 296 295 292 297 297 296 297 297 298 299 300
315 315 315 317 319 325 325 326 325 321 319 318 314 298 300 299 306 307 308 309 305 304 303 303 298 296 295 294 288 290 288 289 290 295 295 293 292 297 297 296 297 297 297 298 300
314 314 313 317 317 324 322 312 303 299 304 297 297 296 298 302 306 304 308 304 303 300 295 298 294 291 294 296 295 291 290 290 293 295 293 292 292 295 297 294 296 296 296 297 299
313 314 313 313 316 316 320 307 301 301 294 303 302 302 304 304 298 301 305 301 299 294 295 294 290 295 296 295 294 293 291 291 294 293 292 291 290 294 295 296 296 297 296 297 298
313 313 312 311 313 311 315 311 310 304 295 296 301 299 301 302 298 298 303 299 295 292 292 291 294 296 295 293 292 292 290 290 291 292 291 289 289 291 295 293 294 295 297 298 299
312 312 312 311 306 311 314 313 311 307 290 290 293 297 301 300 296 301 303 300 295 293 292 292 296 294 293 292 293 289 293 293 291 289 286 290 283 289 293 293 293 294 294 296 298
310 311 311 310 305 303 317 316 315 304 279 293 293 300 300 296 297 297 302 299 293 292 293 291 292 293 292 293 294 293 294 291 291 288 286 287 284 287 290 291 293 294 294 295 298
309 310 311 308 307 307 311 318 309 287 279 290 293 292 293 294 295 297 298 300 298 294 293 293 296 295 295 295 295 294 291 290 288 286 281 286 286 286 288 291 293 295 293 294 296
308 310 309 309 300 312 312 304 284 282 291 288 288 291 291 290 292 293 292 292 290 287 286 290 291 293 295 291 293 291 289 284 282 281 281 285 283 287 292 293 294 295 296 294 297
307 309 307 307 309 310 305 293 281 286 286 291 290 290 289 290 290 291 290 289 290 290 286 286 284 290 293 292 290 288 290 284 279 279 281 284 282 289 293 294 294 295 295 295 296
308 303 302 305 310 308 295 284 287 287 291 288 289 286 285 290 289 289 288 291 293 291 288 285 286 291 292 293 294 288 286 290 283 282 280 283 286 291 292 292 293 294 294 294 296
300 299 297 306 309 302 288 285 290 293 294 291 285 286 283 286 287 288 287 291 291 293 294 290 285 289 291 293 291 291 291 285 283 279 277 280 282 285 289 291 291 294 294 294 295
300 291 299 306 306 294 283 287 292 296 295 290 287 285 285 286 287 287 287 290 295 292 294 290 287 285 289 288 287 287 286 285 286 283 280 278 282 289 290 292 292 294 295 295 295
297 285 300 305 290 289 284 290 297 295 296 292 291 288 287 287 285 286 286 291 294 295 291 290 287 282 286 289 291 289 288 289 285 280 280 280 282 291 291 292 292 293 294 295 296
291 291 299 301 284 284 290 292 296 294 293 291 290 291 290 288 286 287 288 293 293 294 292 291 286 281 283 286 287 287 287 288 286 284 280 281 284 292 292 292 293 293 294 294 295
288 285 291 294 294 288 287 290 291 298 295 293 292 292 290 288 288 287 288 292 292 294 301 298 286 287 284 285 287 285 287 288 288 281 284 282 287 292 293 292 293 294 295 295 295
287 286 290 285 288 290 291 292 291 290 294 294 290 292 289 285 286 285 288 289 291 297 293 291 285 286 288 289 288 288 288 288 286 288 285 288 285 291 295 295 295 294 294 294 294
287 286 289 288 291 290 290 290 291 293 293 292 289 289 289 287 289 285 288 288 288 289 289 289 286 286 286 288 287 286 287 287 288 287 287 287 287 294 294 293 292 294 293 293 294
292 294 289 289 289 287 288 291 292 294 294 296 293 290 289 291 293 294 295 294 292 289 287 287 285 283 282 285 285 282 286 287 287 287 289 285 292 295 292 291 292 293 292 292 294

GFSSW_sfc_thetae_108.txt.gz
Theta_e
331 335 335 335 334 333 333 333 332 332 330 330 329 329 329 328 325 316 310 320 324 332 333 321 320 318 316 314 313 312 308 305 305 303 307 307 307 308 308 308 308 311 310 315 327
328 331 334 335 333 333 333 333 332 331 330 329 329 329 329 326 317 311 324 329 334 340 318 316 315 315 312 311 312 311 307 306 305 303 304 306 306 307 306 307 307 309 313 317 327
326 328 331 334 334 333 333 332 332 331 330 329 329 328 327 323 309 309 335 338 337 341 319 318 316 313 309 310 309 307 306 307 304 305 304 303 304 306 305 305 309 308 310 315 322
323 325 326 330 333 333 332 332 332 331 329 329 328 327 326 316 299 314 332 343 341 331 318 316 313 310 308 305 308 304 305 306 306 306 305 304 305 304 306 308 308 309 310 315 317
320 322 325 327 331 332 332 331 331 331 329 328 327 326 316 305 305 315 334 344 330 322 315 313 309 308 305 307 306 305 305 305 306 304 305 304 304 304 304 308 308 307 309 313 316
317 320 321 323 325 331 331 331 331 329 328 327 326 324 310 299 312 321 325 329 323 317 313 313 310 309 306 305 305 305 304 304 304 304 304 302 304 302 306 307 307 306 308 312 315
316 317 319 320 321 324 330 331 330 329 328 326 324 318 308 306 313 318 315 319 319 317 312 314 312 309 308 303 305 303 301 304 305 304 303 302 301 301 307 307 306 306 308 309 313
314 316 317 318 319 320 329 330 328 327 327 325 323 316 304 313 316 313 315 314 317 316 313 315 313 309 307 307 304 301 301 298 301 300 300 301 297 304 304 304 304 306 307 308 309
312 315 316 315 316 319 323 328 327 327 325 322 315 310 302 314 308 312 313 312 314 315 313 311 312 307 306 302 300 300 295 296 298 301 300 300 298 303 303 303 304 305 306 307 308
314 314 315 314 314 316 317 327 326 324 321 319 314 303 306 304 308 311 314 313 312 311 308 307 307 303 303 300 292 295 295 297 296 299 299 299 299 303 306 305 305 306 306 307 307
312 314 314 314 313 313 314 318 308 305 311 304 303 304 302 307 310 309 312 310 309 309 302 305 300 297 300 302 301 300 297 296 300 301 299 300 300 302 305 305 304 305 306 306 307
312 313 313 313 312 311 310 307 313 311 300 309 306 304 307 308 302 307 312 306 304 301 303 299 297 301 303 302 300 299 297 296 300 300 297 300 299 302 303 304 305 305 305 306 307
311 311 312 312 311 307 305 306 315 306 300 300 307 303 303 306 302 303 308 306 303 301 300 298 300 302 300 298 297 298 297 297 296 299 299 296 296 299 302 302 304 304 305 306 306
309 310 311 311 304 306 306 315 313 309 292 295 298 303 304 304 299 307 309 305 302 299 300 300 302 298 298 297 298 294 300 298 297 296 292 295 289 297 300 301 303 304 304 304 305
308 309 309 310 304 301 307 311 315 308 280 298 300 309 306 301 303 301 309 305 299 299 300 298 297 297 296 297 300 296 300 298 297 295 294 294 291 297 300 298 301 302 302 304 305
307 308 309 307 306 306 308 310 309 288 279 294 299 297 298 300 302 301 303 306 305 300 298 300 301 301 301 301 300 300 297 295 295 294 288 294 293 294 296 298 299 302 303 302 303
307 307 307 307 300 308 311 303 285 280 296 291 292 296 297 296 299 299 297 297 296 292 292 297 297 300 300 297 298 299 296 289 288 287 287 291 289 294 300 302 302 302 304 303 302
307 307 307 305 309 308 303 290 279 290 292 296 295 294 294 297 298 298 297 295 299 299 295 291 289 296 300 299 296 296 296 290 283 286 289 289 287 294 301 302 302 302 302 302 302
306 305 304 306 308 307 293 281 284 290 296 293 294 291 292 296 296 297 297 296 298 299 294 292 292 299 298 301 301 294 292 299 292 291 287 291 294 298 302 300 300 301 301 302 302
301 298 300 307 308 301 287 283 288 296 297 296 291 294 290 293 292 294 295 299 297 300 302 296 291 296 297 298 296 297 299 290 292 284 283 289 289 291 297 298 300 300 302 302 302
299 292 301 307 306 293 282 285 289 294 297 293 293 291 295 292 294 293 295 298 300 298 301 299 296 291 294 294 294 293 292 293 294 292 286 285 289 298 297 298 298 300 301 302 302
295 286 303 307 288 290 284 287 292 293 296 296 295 294 294 295 293 293 295 298 301 300 295 299 296 291 292 296 298 299 296 296 290 287 290 289 290 300 300 300 299 301 301 302 303
289 290 301 301 284 284 288 288 291 292 294 295 294 296 296 294 291 294 295 298 300 299 297 299 294 288 288 291 293 293 296 297 296 296 290 287 290 299 299 300 301 300 302 301 303
290 283 291 294 293 287 286 285 285 292 291 295 294 295 294 293 296 292 293 295 299 300 304 301 296 293 288 291 295 290 293 294 294 290 290 291 292 298 299 300 302 302 303 303 302
290 285 290 281 286 288 288 288 286 286 295 297 294 293 295 292 292 292 295 293 296 299 300 299 292 294 295 295 295 293 293 293 292 293 290 293 293 296 299 301 303 304 304 302 302
287 286 289 287 286 288 288 285 287 289 293 292 292 296 295 293 294 291 295 295 294 296 297 298 293 294 291 294 294 292 294 294 293 294 294 294 294 301 302 303 301 302 302 301 300
294 294 288 285 285 284 286 286 289 293 295 298 297 296 294 296 299 300 299 299 298 296 295 295 293 291 288 293 292 287 292 293 294 295 295 291 296 301 300 300 301 302 302 302 302

GFSSW_sfc_thetae_111.txt.gz
Theta_e
326 328 329 332 334 334 333 333 333 332 331 330 330 329 329 329 325 318 311 319 324 335 333 323 324 321 320 318 318 317 308 306 308 307 310 312 311 313 314 312 314 316 314 320 328
323 326 327 328 331 333 333 333 333 332 331 330 330 329 329 327 317 312 327 329 332 339 320 317 315 317 313 315 315 312 307 309 311 309 309 311 311 312 310 311 310 311 315 323 327
320 322 324 326 328 330 333 332 332 332 331 330 329 329 328 324 311 313 335 334 335 338 322 319 316 315 310 313 312 311 307 313 309 308 307 308 308 310 309 310 312 312 314 318 324
317 319 321 324 325 326 331 332 332 331 331 330 329 328 327 317 302 316 330 336 344 326 322 316 313 311 308 306 312 306 310 310 310 308 307 306 308 306 308 311 313 312 312 316 318
314 317 319 321 323 323 326 331 332 331 331 329 328 327 319 309 309 319 333 336 333 324 317 313 310 309 306 308 308 306 308 309 310 307 307 308 306 307 308 311 312 311 310 311 315
315 314 317 318 321 322 323 324 331 331 330 328 327 325 314 304 318 316 320 326 323 322 316 314 312 311 307 307 306 308 307 307 308 307 307 304 306 306 307 310 310 310 309 311 312
314 314 315 317 318 319 320 322 330 330 329 328 326 321 312 310 315 319 320 323 323 321 314 315 316 309 309 305 308 306 302 304 305 306 305 306 302 302 308 309 308 308 309 310 312
314 314 315 316 317 316 317 319 322 328 328 327 325 319 308 318 320 316 318 318 321 321 318 317 316 312 308 309 305 302 302 297 304 305 304 303 296 304 307 306 306 307 308 309 310
314 314 315 315 316 315 315 317 319 328 328 325 319 315 305 316 310 314 315 313 316 317 317 314 314 309 308 302 299 301 295 297 299 304 302 301 299 305 306 305 305 307 308 308 309
312 313 313 314 314 314 313 314 321 326 323 321 318 307 309 306 311 312 314 313 313 313 309 308 307 304 304 300 292 296 296 298 298 301 301 300 300 304 307 307 306 307 308 308 309
311 312 313 313 314 312 309 308 314 308 313 305 307 306 307 312 312 310 312 310 313 310 302 305 300 297 300 301 302 301 299 298 300 303 300 300 301 303 306 307 306 307 308 308 309
310 311 311 312 312 311 308 301 306 308 300 312 310 308 310 310 304 308 312 305 306 302 305 302 297 301 303 303 301 300 298 297 301 303 300 300 300 303 305 306 307 307 307 308 309
309 309 310 311 311 308 302 302 310 309 297 305 310 307 306 309 303 306 308 305 304 301 302 299 301 303 302 300 299 299 297 297 297 301 302 300 298 301 305 306 306 307 308 308 308
308 308 309 310 304 305 302 309 310 311 293 296 301 307 309 306 301 310 310 306 304 301 303 302 305 301 300 298 300 295 301 300 298 296 292 299 290 298 301 302 305 308 309 309 308
308 307 308 308 304 301 304 308 307 308 280 298 303 314 310 302 306 305 311 306 301 301 303 299 301 299 298 299 301 297 302 300 299 296 296 296 292 296 302 300 304 304 305 306 308
307 307 307 305 306 306 308 308 303 288 280 296 303 301 301 302 303 306 304 308 307 302 303 302 306 304 302 303 302 303 299 298 297 296 288 294 293 294 299 300 302 304 306 307 306
307 306 306 306 299 307 309 300 283 279 295 292 295 300 300 298 298 300 299 298 296 293 294 298 299 302 303 300 302 300 296 289 287 287 287 296 293 296 302 304 303 303 305 307 306
306 306 305 305 307 307 303 289 278 288 291 300 298 299 296 300 298 299 297 296 300 299 296 292 290 298 301 300 297 297 296 290 284 286 290 293 289 295 302 304 305 305 305 305 305
305 303 302 304 308 306 294 280 282 287 295 296 297 294 294 298 298 298 297 298 300 301 295 294 293 302 301 302 301 297 293 299 292 294 290 293 296 300 302 303 303 303 305 305 306
300 298 298 305 308 301 287 282 286 293 295 296 290 294 292 295 295 296 296 301 300 303 305 300 292 299 300 301 301 299 301 292 293 285 284 291 293 294 297 299 300 302 303 305 305
298 292 301 308 307 293 281 284 287 291 293 292 292 294 296 294 296 296 297 301 303 302 304 302 298 294 298 295 295 295 294 296 296 293 287 286 291 302 299 300 300 303 303 304 305
295 286 304 307 289 290 285 288 292 290 293 291 293 294 295 297 296 296 296 300 305 305 298 302 298 292 293 300 301 299 296 296 291 289 293 292 291 302 302 302 303 303 304 304 306
291 291 301 302 283 286 289 288 289 288 289 292 291 296 299 297 294 296 298 303 304 303 299 301 296 291 292 294 296 294 297 298 297 296 291 288 291 302 303 302 303 302 304 304 305
290 285 293 294 292 288 286 285 286 291 289 290 292 295 295 293 298 294 297 299 302 303 305 304 298 294 291 292 296 292 294 297 296 291 291 293 294 299 301 302 304 304 305 305 304
291 286 290 283 285 284 284 284 286 285 290 292 290 290 293 290 294 293 298 296 299 303 302 301 294 296 297 298 297 296 294 295 294 295 291 294 295 299 301 302 303 305 306 306 305
289 287 290 287 287 284 285 283 284 286 287 285 288 293 295 293 295 293 298 296 295 299 299 301 294 296 294 297 296 293 295 295 295 295 295 295 295 302 303 304 303 304 304 304 305
295 295 289 285 285 283 284 285 286 289 290 291 291 291 291 296 298 301 301 300 300 297 296 297 296 293 290 295 294 290 294 295 296 297 296 292 297 302 301 302 303 304 305 304 305

GFSSW_sfc_thetae_114.txt.gz
Theta_e
320 322 325 326 327 329 330 333 333 333 332 332 331 330 330 330 326 317 310 319 324 341 332 321 322 321 320 316 319 317 304 302 305 306 307 311 308 310 309 306 308 310 311 318 323
317 319 322 324 325 327 328 330 333 332 332 332 331 331 330 329 317 311 324 338 338 337 317 316 314 316 310 312 313 308 302 306 309 305 307 309 309 308 305 306 305 306 314 322 323
316 316 318 320 323 325 325 326 328 332 332 332 331 330 329 325 310 314 341 339 337 334 320 318 315 313 308 310 310 307 302 309 309 307 306 308 305 308 304 304 307 306 309 318 320
315 316 315 317 320 322 323 323 326 329 332 331 331 329 328 318 301 317 334 336 342 322 319 316 312 307 306 305 309 303 307 308 311 307 306 303 306 302 304 306 308 306 313 316 317
315 315 316 315 318 320 321 322 323 326 331 331 331 328 320 309 309 321 330 331 334 325 315 313 309 307 304 305 306 304 305 308 309 305 305 307 303 302 304 307 308 307 307 310 314
314 315 315 316 315 318 319 319 320 322 325 330 330 327 314 302 319 322 317 317 324 320 315 314 309 310 306 305 303 305 305 305 305 305 305 302 302 303 304 306 306 307 304 304 305
314 314 315 315 315 315 318 318 318 319 321 330 329 322 312 308 320 316 319 317 321 318 315 315 313 309 306 302 306 304 299 301 302 303 302 303 298 299 304 305 303 302 302 304 305
313 313 314 314 314 314 316 316 316 317 319 329 328 320 307 318 319 317 318 316 321 321 320 316 313 311 306 307 303 298 297 292 299 302 301 300 292 300 301 300 300 301 300 302 304
312 312 313 313 314 314 314 314 314 316 320 328 321 314 306 321 313 315 318 310 315 317 317 317 312 307 306 299 295 296 290 292 296 301 299 297 293 300 301 300 298 299 300 301 302
311 311 312 312 313 313 313 313 314 316 322 325 320 308 311 308 312 315 315 314 310 312 310 308 304 300 300 296 288 292 292 294 294 298 298 296 295 300 302 301 300 300 300 300 301
310 310 310 311 312 312 310 307 306 310 316 307 308 306 311 315 312 309 313 309 308 307 300 303 297 293 297 299 299 297 295 294 297 300 297 296 296 299 301 301 300 300 300 301 302
309 310 309 310 311 311 308 298 302 303 295 304 311 311 314 311 304 307 312 302 301 299 302 299 294 299 301 301 299 297 294 293 297 299 297 297 295 299 300 301 301 302 301 301 302
308 309 309 308 309 307 303 301 309 308 295 300 308 309 308 310 303 303 307 303 300 299 299 295 298 302 300 298 296 296 294 294 294 297 296 295 293 297 301 303 304 303 302 302 302
306 308 308 309 304 304 301 307 307 309 289 294 301 307 311 307 301 309 308 303 302 298 300 298 302 300 298 296 297 292 299 298 296 292 286 293 284 293 297 298 300 301 300 301 302
306 307 308 307 301 298 302 308 307 303 277 296 301 315 311 301 305 304 309 304 298 299 300 297 299 298 296 297 299 295 301 298 296 291 289 291 287 290 296 295 298 297 297 299 299
305 306 307 304 303 303 306 308 302 283 278 294 302 302 302 301 302 306 303 306 304 300 300 300 304 302 300 301 300 301 296 294 293 290 284 289 289 288 292 296 295 297 298 300 300
305 305 304 304 297 304 307 300 281 277 294 292 295 301 301 298 299 301 298 296 293 290 292 297 299 300 303 297 300 297 291 284 282 282 282 291 288 290 296 298 298 298 296 298 300
305 305 304 303 305 305 301 288 276 284 287 299 298 299 296 299 297 298 296 293 297 296 293 290 288 296 300 298 295 294 293 286 279 281 284 290 285 290 298 296 298 300 299 298 299
304 300 300 302 305 304 292 278 279 284 291 293 294 293 293 299 297 297 295 294 297 298 292 290 290 300 299 300 300 294 290 295 288 290 283 287 289 294 297 298 297 296 298 297 298
297 296 295 303 304 299 286 280 283 288 291 293 289 294 290 294 294 294 292 297 297 300 302 296 289 297 298 299 299 296 298 288 288 279 278 285 286 288 293 295 296 295 296 298 300
296 290 297 304 303 291 281 282 285 290 291 288 289 290 293 293 295 293 293 298 300 299 301 299 296 293 295 293 292 293 291 292 291 288 282 280 285 292 296 295 295 294 298 297 299
293 285 302 305 287 288 283 286 290 288 291 289 289 288 290 293 294 294 293 297 302 302 296 299 295 290 291 296 298 296 294 293 287 284 288 287 287 296 296 296 298 297 298 298 301
288 289 299 300 280 283 287 286 289 287 287 289 288 290 292 291 288 296 297 301 303 301 297 299 293 288 288 291 294 292 294 294 294 291 287 284 286 297 297 296 298 297 297 299 300
288 283 291 293 292 285 283 283 285 291 288 289 288 289 287 289 293 293 296 301 302 302 305 303 295 292 286 289 291 289 292 295 293 287 287 288 290 292 294 295 296 297 298 298 300
288 285 289 282 285 285 285 283 282 283 289 289 286 286 288 286 291 292 297 297 301 302 303 300 291 294 295 296 294 292 292 292 291 292 288 290 291 295 296 297 298 299 299 299 298
286 286 289 286 286 284 284 282 282 284 285 285 285 288 287 286 287 287 292 296 294 298 298 299 292 294 292 295 296 292 294 293 293 293 293 293 292 296 297 296 296 298 297 298 300
293 293 289 284 283 282 282 283 284 286 286 289 289 287 286 290 296 296 297 299 298 296 296 295 293 291 287 293 293 288 293 293 293 294 294 290 294 296 296 297 296 297 298 298 299

GFSSW_sfc_thetae_117.txt.gz
Theta_e
316 317 318 319 321 324 326 327 329 331 332 332 332 331 331 330 328 317 309 317 319 333 334 316 316 315 316 311 313 309 298 296 300 302 303 307 306 307 306 305 307 307 311 314 319
316 317 316 317 318 321 323 325 325 327 330 332 332 331 330 329 317 311 321 335 339 339 315 310 310 314 306 307 308 303 297 300 303 299 303 306 306 305 304 304 302 310 317 319 320
315 316 316 316 317 317 321 323 323 324 326 331 332 331 329 326 310 309 341 341 341 335 316 313 312 310 304 304 304 303 298 304 306 303 303 305 303 305 302 300 304 307 315 318 316
316 315 316 315 316 315 317 321 322 322 324 326 332 331 328 317 298 314 340 342 339 321 316 313 310 302 301 300 304 300 304 305 307 305 303 301 304 301 302 303 304 306 317 317 316
314 315 315 316 316 316 315 317 320 320 321 323 327 330 319 308 306 318 332 333 335 321 311 310 306 303 299 301 302 300 302 305 305 304 303 304 300 299 300 304 304 309 315 316 317
314 314 314 315 316 316 316 315 319 319 318 320 323 327 314 302 316 318 318 316 327 320 311 311 308 306 301 302 299 302 303 303 302 302 303 301 300 300 301 304 303 303 308 312 314
313 313 313 313 314 314 315 314 316 316 317 318 322 324 313 309 317 316 316 313 316 323 311 313 313 304 302 298 302 301 296 297 298 300 300 301 296 297 301 303 301 300 300 301 307
311 312 312 312 313 314 314 314 314 314 315 317 321 322 309 321 321 318 319 313 314 317 317 316 314 306 303 301 299 294 293 289 296 298 299 299 290 298 300 298 299 299 297 298 301
310 311 311 311 311 312 313 313 314 314 314 316 314 316 307 323 315 317 316 310 312 314 314 318 311 303 302 295 291 291 286 289 292 298 297 295 291 298 298 298 297 296 296 297 298
309 309 310 310 310 311 312 313 312 312 311 313 316 310 311 308 313 317 315 313 307 310 308 307 301 296 296 291 285 288 288 289 289 295 296 293 292 295 298 297 296 296 296 296 297
309 308 309 310 309 310 308 302 297 301 307 303 307 307 309 314 317 309 312 308 308 303 297 300 293 291 295 297 296 294 291 290 293 297 294 292 292 295 298 297 296 296 295 297 298
308 308 308 309 309 309 305 297 298 301 291 298 300 305 313 314 305 305 310 302 300 295 299 294 292 297 299 299 297 295 292 289 293 296 294 293 292 297 298 298 299 299 297 297 298
306 306 307 308 309 304 301 300 305 304 293 295 300 303 308 311 305 301 305 302 297 294 297 294 296 300 298 297 295 295 292 290 291 294 293 291 290 294 298 298 301 303 300 299 300
307 306 306 307 300 300 295 306 306 305 287 290 295 301 309 309 304 310 307 303 297 293 297 296 299 298 297 295 296 291 296 296 295 290 285 290 282 290 295 297 298 299 298 300 299
306 306 305 306 298 296 300 304 306 299 273 291 297 311 308 302 303 303 310 303 296 295 296 294 296 295 294 295 297 293 298 297 295 288 285 287 284 287 295 294 297 297 296 297 299
306 305 305 300 299 300 302 303 301 281 273 290 300 300 300 302 302 305 304 305 303 297 299 297 300 299 297 299 299 299 296 294 291 287 282 286 286 285 291 295 295 296 296 297 297
305 305 302 301 293 302 302 296 280 274 287 288 293 299 298 297 298 300 300 296 292 288 290 295 296 298 300 295 297 297 291 283 281 280 281 289 288 288 292 295 296 296 297 298 297
305 305 301 299 300 301 297 285 273 279 281 289 290 296 294 298 298 298 298 294 296 294 289 288 286 295 297 295 292 293 291 285 279 280 283 289 283 288 296 298 297 298 298 297 297
304 296 294 297 300 299 290 277 275 280 285 287 290 289 291 297 297 295 296 293 295 296 290 288 288 296 297 298 298 291 288 294 287 285 281 284 286 293 293 295 294 296 297 297 296
293 292 292 298 300 295 285 280 280 286 286 287 281 289 288 293 294 294 294 297 295 298 298 292 287 295 295 298 296 295 295 287 285 278 277 282 283 287 291 293 293 294 295 297 297
293 288 293 302 297 288 279 279 284 288 287 286 285 284 285 286 293 293 294 296 299 297 299 296 292 291 294 291 292 290 290 289 289 285 280 277 283 292 295 294 293 294 295 297 297
291 281 295 299 286 285 280 284 289 286 288 286 287 285 283 285 285 291 293 295 301 300 293 298 294 288 290 293 298 297 292 292 286 282 285 282 283 293 292 293 295 294 296 297 298
287 286 294 294 277 280 284 283 286 286 286 286 285 288 288 285 285 287 292 300 301 299 295 297 293 287 288 291 292 291 294 293 290 287 283 283 284 295 293 293 295 294 295 297 298
288 280 284 287 287 284 282 282 282 287 285 287 286 287 287 285 287 287 290 298 302 301 303 301 295 290 285 288 292 287 291 293 291 286 286 286 288 291 291 293 294 295 295 296 299
288 282 284 275 280 285 284 282 280 281 287 287 285 285 284 282 283 285 291 290 298 302 301 299 290 293 294 293 293 292 291 292 290 291 287 290 290 294 294 293 294 295 295 295 297
285 284 287 285 284 282 281 280 281 282 284 283 283 285 285 281 283 282 287 286 290 297 298 299 291 293 291 294 293 290 292 292 292 292 291 291 289 295 297 294 294 295 296 295 296
289 292 288 282 279 275 277 280 282 284 286 286 285 283 283 286 290 290 293 292 292 288 292 295 293 291 286 292 293 288 290 291 292 294 293 289 294 295 295 295 295 295 296 296 297

GFSSW_sfc_thetae_123.txt.gz
Theta_e
315 316 317 317 317 317 316 315 317 319 321 324 324 326 328 329 329 321 312 316 321 332 335 313 312 311 311 308 309 305 296 293 297 299 301 302 302 303 304 303 303 306 309 310 315
313 315 316 316 317 316 317 317 317 317 318 320 323 323 324 325 322 314 324 331 332 336 319 309 305 309 305 305 305 301 295 297 302 297 297 302 302 302 302 302 303 308 310 314 316
311 313 315 316 316 315 315 316 317 317 317 317 321 322 323 322 312 313 332 338 336 335 323 310 309 309 304 302 302 300 296 301 303 303 301 300 300 302 300 298 305 307 309 313 314
310 310 314 314 315 314 314 315 315 316 317 316 318 320 320 316 301 311 333 339 336 328 320 309 306 302 300 299 302 297 301 303 305 305 303 299 300 299 300 302 305 308 313 313 314
310 310 311 313 314 314 313 313 314 315 316 316 316 318 314 309 310 321 333 326 326 317 311 307 304 302 298 298 299 297 299 302 303 303 302 301 299 298 299 301 301 311 313 313 314
310 311 310 311 312 312 313 313 313 314 315 316 316 315 307 298 319 322 321 318 314 319 309 308 305 305 300 299 298 299 300 300 300 301 300 298 298 298 300 301 300 310 311 312 313
310 309 310 310 310 311 312 313 312 312 313 315 315 311 302 302 315 317 317 313 316 315 315 309 309 305 303 298 301 300 295 297 296 298 298 298 295 295 300 300 298 304 308 311 313
309 309 309 309 309 309 310 311 312 312 311 313 315 308 296 311 314 314 316 317 320 319 316 318 311 306 301 301 297 292 292 291 294 296 298 298 292 298 300 297 298 297 299 308 311
309 308 308 308 308 308 308 310 311 312 313 312 306 303 292 313 307 313 317 314 316 313 310 314 309 303 301 297 292 289 284 286 291 295 295 294 291 297 299 297 296 296 295 296 303
309 308 308 307 307 307 307 309 310 310 308 308 306 296 300 300 311 313 317 316 311 311 307 304 302 296 295 293 287 286 285 288 288 293 292 290 291 294 295 295 295 295 293 293 295
308 308 307 307 307 307 304 300 293 291 298 293 294 293 297 304 310 312 315 313 312 307 298 298 295 293 296 296 296 293 289 289 289 294 291 290 292 296 296 291 292 292 292 292 293
308 308 307 307 307 306 301 292 294 298 289 295 295 296 298 300 295 305 313 305 304 298 300 294 293 299 301 299 296 294 291 288 291 293 291 290 289 293 293 294 295 295 294 294 295
307 307 307 306 306 300 295 293 301 300 288 289 294 293 294 296 293 298 309 306 299 297 298 293 295 302 299 297 294 294 291 290 290 292 289 287 287 290 294 293 296 296 297 296 297
306 306 306 306 297 296 292 300 300 301 281 282 289 292 295 297 295 302 309 306 300 296 297 296 299 298 297 295 295 291 297 295 293 289 283 288 280 287 291 292 294 296 296 298 299
306 306 305 305 296 292 296 299 298 295 268 283 290 299 296 293 297 300 309 306 298 297 297 293 295 294 295 296 296 292 297 295 294 290 285 285 282 285 289 290 294 297 296 297 299
306 306 305 299 295 296 298 297 294 278 265 281 292 291 290 293 294 301 304 308 303 297 298 296 298 298 297 299 298 296 293 291 289 285 281 286 285 284 288 291 295 296 297 296 296
306 305 302 300 291 297 297 290 269 268 280 279 282 286 286 288 291 294 297 297 291 288 288 292 295 297 297 293 297 295 289 283 281 279 280 286 283 289 290 294 298 299 298 296 295
305 304 300 299 297 296 292 280 266 274 277 283 284 284 281 286 290 291 291 292 296 293 289 286 284 294 297 294 292 291 290 283 277 276 281 285 281 286 293 299 299 297 297 295 293
302 294 292 294 297 296 285 271 267 275 280 281 281 279 283 286 284 284 289 289 293 295 288 286 286 294 295 295 296 290 288 292 283 280 279 281 284 290 292 292 294 294 294 296 296
293 290 290 296 296 292 280 271 275 281 282 282 275 280 275 280 280 280 279 288 292 297 298 291 283 293 295 296 296 293 295 286 286 278 276 279 279 285 288 292 292 293 293 294 295
290 284 290 299 298 287 273 272 278 282 282 279 279 277 278 278 281 279 280 285 288 293 298 292 290 287 294 292 291 291 290 289 289 283 280 276 281 288 292 293 292 293 294 294 295
289 277 293 295 276 282 277 280 284 282 287 286 284 282 280 281 278 281 280 284 289 289 285 295 292 285 288 295 298 295 292 291 286 281 285 280 285 291 293 294 292 292 293 295 296
285 283 290 290 275 274 277 282 284 283 283 283 282 284 284 282 277 283 285 289 287 287 284 287 289 284 285 291 295 292 293 293 292 288 281 282 285 292 290 290 293 293 292 294 296
285 276 281 288 283 277 277 278 281 286 284 286 283 285 283 280 283 280 283 287 290 288 290 289 286 287 282 286 291 289 292 292 291 286 287 286 288 288 290 291 291 291 292 293 295
286 279 280 274 277 281 279 277 279 279 284 285 282 283 281 277 279 280 283 285 288 290 286 287 280 288 290 291 293 291 292 292 290 291 287 290 289 292 291 292 292 292 291 293 294
282 281 284 281 282 280 278 278 278 280 281 280 280 282 282 278 279 277 281 281 283 287 286 286 279 282 288 291 293 290 292 293 292 292 292 292 290 294 294 288 289 290 291 292 294
290 290 284 280 277 275 276 278 279 282 282 283 282 279 278 281 284 284 285 286 285 283 283 283 282 279 283 290 291 286 290 292 293 293 293 289 294 292 292 291 291 291 292 293 293